This demonstration page uses our WeatherBlox Daily Observations layout. Learn more.

Left ArrowRight Arrow

30.00354, -91.81873

Hourly Observations for August 18, 2022

Temp ( °F °C ) Dew Point ( °F °C ) Humidity (%) Winds ( mph kmh ) Pressure ( in mb ) Visibility ( mi km ) Precip ( " mm )
12:53 am 00:53 Clear 78 25.6 75 23.9 90 90 SSE 3 6 29.94 1014 9 14 0.00 0.00
1:53 am 01:53 Clear 78 25.6 75 23.9 90 90 Calm 29.94 1014 9 14 0.00 0.00
2:53 am 02:53 Clear 78 25.6 75 23.9 90 90 Calm 29.93 1014 10 16 0.00 0.00
3:53 am 03:53 Clear 78 25.6 75 23.9 90 90 WSW 3 6 29.93 1013 8 13 0.00 0.00
4:53 am 04:53 Clear 78 25.6 75 23.9 90 90 WSW 3 6 29.91 1013 10 16 0.00 0.00
5:53 am 05:53 Mostly Clear 77 25 75 23.9 94 94 WSW 3 6 29.92 1013 7 11 0.00 0.00
6:53 am 06:53 Mostly Sunny 79 26.1 76 24.4 90 90 WSW 3 6 29.93 1014 9 14 0.00 0.00
7:53 am 07:53 Sunny 79 26.1 76 24.4 90 90 W 3 6 29.93 1014 9 14 0.00 0.00
8:53 am 08:53 Sunny 83 28.3 77 25 82 82 NW 8 13 29.95 1014 10 16 0.00 0.00
9:53 am 09:53 Sunny 88 31.1 75 23.9 66 66 WNW 9 15 29.96 1014 10 16 0.00 0.00
10:53 am 10:53 Sunny 90 32.2 73 22.8 58 58 NW 6 9 29.97 1015 10 16 0.00 0.00
11:53 am 11:53 Partly Cloudy 87 30.6 74 23.3 65 65 N 8 13 29.96 1015 10 16 0.00 0.00
12:53 pm 12:53 Mostly Sunny 89 31.7 73 22.8 59 59 VRB 3 6 29.96 1014 10 16 0.00 0.00
1:53 pm 13:53 Sunny 90 32.2 72 22.2 56 56 Calm 29.93 1014 10 16 0.00 0.00
2:53 pm 14:53 Sunny 91 32.8 74 23.3 58 58 undefined N/A 29.92 1013 10 16 0.00 0.00
3:53 pm 15:53 Partly Cloudy with Nearby Thunderstorms 88 31.1 74 23.3 63 63 ENE 5 7 29.92 1013 10 16 0.00 0.00
4:32 pm 16:32 Mostly Cloudy with Thunderstorms 79 26.1 71 21.7 77 77 N 15 24 29.93 1013 6 10 0.05 1.27
4:53 pm 16:53 Cloudy with Thunderstorms 76 24.4 70 21.1 82 82 N 9 15 29.93 1014 10 16 0.09 2.29
5:53 pm 17:53 Mostly Cloudy with Nearby Thunderstorms 75 23.9 72 22.2 90 90 SSW 3 6 29.94 1014 4 6 0.07 1.78
6:08 pm 18:08 Mostly Cloudy with Light Rain 75 23.9 72 22.2 90 90 S 7 11 29.93 1013 6 10 0.03 0.76
6:28 pm 18:28 Partly Cloudy with Nearby Thunderstorms 75 23.9 72 22.2 90 90 SSE 3 6 29.91 1013 5 8 0.06 1.52
6:43 pm 18:43 Sunny with Light Rain 75 23.9 72 22.2 90 90 SE 5 7 29.90 1012 9 14 0.07 1.78
6:53 pm 18:53 Sunny with Light Rain 75 23.9 72 22.2 90 90 S 3 6 29.90 1013 9 14 0.08 2.03
7:53 pm 19:53 Mostly Cloudy 75 23.9 72 22.2 90 90 SSW 3 6 29.91 1013 10 16 0.02 0.51
8:53 pm 20:53 Clear 75 23.9 73 22.8 94 94 NW 3 6 29.92 1013 9 14 0.00 0.00
9:53 pm 21:53 Mostly Clear 76 24.4 73 22.8 91 91 Calm 29.93 1014 10 16 0.00 0.00
10:53 pm 22:53 Clear 75 23.9 73 22.8 94 94 Calm 29.94 1014 9 14 0.00 0.00
11:53 pm 23:53 Clear 75 23.9 72 22.2 90 90 Calm 29.94 1014 10 16 0.00 0.00

Powered by AerisWeather